Starlink 4101

operational
NORAD ID: 53142 Int'l Des: 2022-083 Owner: SPXS Country: US Constellation: starlink
LEOCIRCULAR

Über Starlink 4101

Beschreibung wird geladen...

Live-Position

3D-Globus wird geladen...

Nächste Überflüge

Höhenverlauf

Altitude vs Time

uPlot chart will show altitude changes over time

Zweizeiliger Elementsatz

1 53142U 22083L 25305.61148936 .00004462 00000-0 29852-3 0 9998
2 53142 53.2191 29.0605 0001700 111.9614 248.1559 15.08811597181897
Epoch: 1. Nov. 2025 • Age: 16 hours

Aktueller Status

Höhe 545.1 km
Geschwindigkeit 7.60 km/s
Subsatellitenpunkt 52.56°N, 17.1°W
Startdatum 17. Juli 2022
Alter 3.2 years
Typ internet

Technische Details

Klassifizierung Payload
Masse 297.00 kg
Trockenmasse 275.00 kg
Gesamtmasse 297.00 kg
Länge 0.20 m
Durchmesser 2.80 m
Spannweite 9.00 m
Form Box + pan
Hersteller SPXS
Bus-Typ Starlink
Phasenstatus In Orbit
Besitzer/Staat SPXS/US

Große Konstellationen

Loading constellations...